| time (UTC) | temp F | wind direction | speed knots | gust knots | rain 1hr in | rain 24hr in | rain mn in | humidity % | barometer mb |
| 20260505023303 | 72 | 149 | 0.0 | 0.0 | 0.00 | 0.00 | 0.00 | 95 | 1020.5 |
| 20260505022800 | 72 | 148 | 0.0 | 0.0 | 0.00 | 0.00 | 0.00 | 95 | 1020.6 |
| 20260505022258 | 72 | 133 | 0.0 | 0.9 | 0.00 | 0.00 | 0.00 | 95 | 1020.5 |
| 20260505021754 | 72 | 139 | 0.0 | 0.0 | 0.00 | 0.00 | 0.00 | 95 | 1020.5 |
| 20260505021251 | 72 | 145 | 0.0 | 0.0 | 0.00 | 0.00 | 0.00 | 95 | 1020.5 |
| 20260505020747 | 73 | 135 | 0.0 | 0.0 | 0.00 | 0.00 | 0.00 | 94 | 1020.5 |
| 20260505020242 | 73 | 150 | 0.0 | 0.0 | 0.00 | 0.00 | 0.00 | 95 | 1020.3 |
| 20260505015740 | 73 | 152 | 0.0 | 0.0 | 0.00 | 0.00 | 0.00 | 94 | 1020.3 |
| 20260505015237 | 73 | 148 | 0.0 | 0.0 | 0.00 | 0.00 | 0.00 | 94 | 1020.3 |
| 20260505014734 | 73 | 140 | 0.0 | 0.9 | 0.00 | 0.00 | 0.00 | 94 | 1020.5 |
| 20260505014231 | 73 | 135 | 0.0 | 0.0 | 0.00 | 0.00 | 0.00 | 94 | 1020.1 |
| 20260505013728 | 73 | 140 | 0.0 | 0.9 | 0.00 | 0.00 | 0.00 | 94 | 1020.1 |
| 20260505013225 | 73 | 139 | 0.0 | 0.0 | 0.00 | 0.00 | 0.00 | 94 | 1020.3 |
| 20260505012723 | 73 | 136 | 0.0 | 0.9 | 0.00 | 0.00 | 0.00 | 94 | 1020.2 |
| 20260505012220 | 74 | 128 | 0.0 | 0.0 | 0.00 | 0.00 | 0.00 | 94 | 1020.0 |
| 20260505011716 | 74 | 135 | 0.0 | 0.0 | 0.00 | 0.00 | 0.00 | 94 | 1019.9 |
| 20260505011213 | 74 | 144 | 0.0 | 0.0 | 0.00 | 0.00 | 0.00 | 93 | 1019.7 |
| 20260505010708 | 74 | 130 | 0.0 | 0.0 | 0.00 | 0.00 | 0.00 | 93 | 1019.7 |
| 20260505010205 | 74 | 150 | 0.0 | 0.0 | 0.00 | 0.00 | 0.00 | 93 | 1019.7 |
| 20260505005701 | 74 | 141 | 0.0 | 0.0 | 0.00 | 0.00 | 0.00 | 93 | 1019.6 |
| 20260505005159 | 74 | 147 | 0.0 | 0.0 | 0.00 | 0.00 | 0.00 | 93 | 1019.5 |
| 20260505004656 | 75 | 146 | 0.0 | 0.0 | 0.00 | 0.00 | 0.00 | 93 | 1019.7 |
| 20260505004152 | 75 | 141 | 0.0 | 0.0 | 0.00 | 0.00 | 0.00 | 93 | 1019.5 |
| 20260505003649 | 75 | 149 | 0.0 | 0.0 | 0.00 | 0.00 | 0.00 | 92 | 1019.7 |
| 20260505003147 | 75 | 142 | 0.0 | 0.0 | 0.00 | 0.00 | 0.00 | 92 | 1019.5 |
| 20260505002643 | 75 | 121 | 0.0 | 0.9 | 0.00 | 0.00 | 0.00 | 92 | 1019.5 |
| 20260505002141 | 76 | 146 | 0.0 | 0.0 | 0.00 | 0.00 | 0.00 | 91 | 1019.7 |
| 20260505001638 | 76 | 159 | 0.0 | 0.0 | 0.00 | 0.00 | 0.00 | 91 | 1019.4 |
| 20260505001135 | 77 | 154 | 0.0 | 0.0 | 0.00 | 0.00 | 0.00 | 90 | 1019.5 |
| 20260505000632 | 77 | 159 | 0.0 | 0.0 | 0.00 | 0.00 | 0.00 | 90 | 1019.5 |
| 20260505000130 | 77 | 149 | 0.0 | 0.0 | 0.00 | 0.00 | 0.00 | 89 | 1019.7 |
| 20260504235626 | 77 | 156 | 0.0 | 0.0 | 0.00 | 0.00 | 0.00 | 89 | 1019.5 |
| 20260504235123 | 77 | 154 | 0.0 | 0.0 | 0.00 | 0.00 | 0.00 | 88 | 1019.5 |
| 20260504234620 | 78 | 157 | 0.0 | 0.0 | 0.00 | 0.00 | 0.00 | 88 | 1019.5 |
| 20260504234117 | 78 | 150 | 0.0 | 0.0 | 0.00 | 0.00 | 0.00 | 87 | 1019.5 |
| 20260504233613 | 78 | 145 | 0.0 | 0.9 | 0.00 | 0.00 | 0.00 | 87 | 1019.5 |
| 20260504233109 | 78 | 151 | 0.0 | 0.0 | 0.00 | 0.00 | 0.00 | 87 | 1019.5 |
| 20260504232607 | 78 | 145 | 0.0 | 0.0 | 0.00 | 0.00 | 0.00 | 87 | 1019.3 |
| 20260504232104 | 78 | 145 | 0.0 | 0.0 | 0.00 | 0.00 | 0.00 | 87 | 1019.2 |
| 20260504231600 | 78 | 132 | 0.0 | 0.0 | 0.00 | 0.00 | 0.00 | 86 | 1019.2 |
| 20260504231056 | 79 | 146 | 0.0 | 0.0 | 0.00 | 0.00 | 0.00 | 86 | 1019.3 |
| 20260504230552 | 79 | 132 | 0.0 | 0.0 | 0.00 | 0.00 | 0.00 | 86 | 1019.2 |
| 20260504230052 | 80 | 135 | 0.0 | 0.0 | 0.00 | 0.00 | 0.00 | 85 | 1019.1 |
| 20260504225549 | 80 | 156 | 0.0 | 0.9 | 0.00 | 0.00 | 0.00 | 84 | 1019.1 |
| 20260504225046 | 80 | 158 | 0.0 | 1.7 | 0.00 | 0.00 | 0.00 | 84 | 1019.0 |
| 20260504224542 | 80 | 157 | 0.0 | 0.9 | 0.00 | 0.00 | 0.00 | 83 | 1019.1 |
| 20260504224040 | 80 | 174 | 0.9 | 1.7 | 0.00 | 0.00 | 0.00 | 83 | 1019.1 |
| 20260504223537 | 81 | 234 | 0.9 | 1.7 | 0.00 | 0.00 | 0.00 | 83 | 1019.0 |
| 20260504223032 | 81 | 194 | 0.9 | 1.7 | 0.00 | 0.00 | 0.00 | 83 | 1018.6 |
| 20260504222529 | 81 | 226 | 0.9 | 1.7 | 0.00 | 0.00 | 0.00 | 82 | 1018.8 |
| 20260504222027 | 81 | 197 | 0.9 | 1.7 | 0.00 | 0.00 | 0.00 | 81 | 1018.7 |
| 20260504221524 | 82 | 172 | 0.0 | 1.7 | 0.00 | 0.00 | 0.00 | 81 | 1018.6 |
| 20260504221020 | 82 | 145 | 0.9 | 0.9 | 0.00 | 0.00 | 0.00 | 80 | 1018.7 |
| 20260504220517 | 82 | 180 | 0.0 | 0.9 | 0.00 | 0.00 | 0.00 | 80 | 1018.8 |
| 20260504220014 | 82 | 171 | 0.9 | 0.9 | 0.00 | 0.00 | 0.00 | 78 | 1018.6 |
| 20260504215510 | 82 | 144 | 0.9 | 4.3 | 0.00 | 0.00 | 0.00 | 79 | 1018.5 |
| 20260504215008 | 82 | 186 | 0.0 | 4.3 | 0.00 | 0.00 | 0.00 | 79 | 1018.4 |
| 20260504214504 | 82 | 172 | 0.0 | 4.3 | 0.00 | 0.00 | 0.00 | 78 | 1018.2 |
| 20260504214000 | 82 | 212 | 1.7 | 7.8 | 0.00 | 0.00 | 0.00 | 79 | 1018.4 |
| 20260504213456 | 82 | 158 | 0.9 | 2.6 | 0.00 | 0.00 | 0.00 | 79 | 1018.2 |
| 20260504212954 | 82 | 245 | 0.9 | 1.7 | 0.00 | 0.00 | 0.00 | 80 | 1018.3 |
| 20260504212450 | 82 | 126 | 0.9 | 1.7 | 0.00 | 0.00 | 0.00 | 78 | 1018.1 |
| 20260504211948 | 82 | 172 | 0.9 | 1.7 | 0.00 | 0.00 | 0.00 | 77 | 1018.1 |
| 20260504211444 | 82 | 190 | 0.9 | 1.7 | 0.00 | 0.00 | 0.00 | 79 | 1018.2 |
| 20260504210942 | 84 | 205 | 3.5 | 6.1 | 0.00 | 0.00 | 0.00 | 77 | 1018.1 |
| 20260504210438 | 83 | 198 | 0.9 | 4.3 | 0.00 | 0.00 | 0.00 | 77 | 1018.1 |
| 20260504205935 | 84 | 236 | 3.5 | 7.0 | 0.00 | 0.00 | 0.00 | 75 | 1018.1 |
| 20260504205433 | 83 | 142 | 2.6 | 2.6 | 0.00 | 0.00 | 0.00 | 76 | 1017.9 |
| 20260504204931 | 83 | 194 | 1.7 | 2.6 | 0.00 | 0.00 | 0.00 | 74 | 1018.0 |
| 20260504204429 | 81 | 231 | 0.9 | 1.7 | 0.00 | 0.00 | 0.00 | 77 | 1017.9 |
| 20260504203928 | 84 | 157 | 2.6 | 4.3 | 0.00 | 0.00 | 0.00 | 74 | 1017.9 |
| 20260504203425 | 83 | 124 | 0.0 | 1.7 | 0.00 | 0.00 | 0.00 | 76 | 1018.0 |
| 20260504202921 | 83 | 195 | 2.6 | 2.6 | 0.00 | 0.00 | 0.00 | 75 | 1018.1 |
| 20260504202417 | 83 | 200 | 4.3 | 5.2 | 0.00 | 0.00 | 0.00 | 74 | 1017.9 |
| 20260504201914 | 82 | 169 | 0.0 | 1.7 | 0.00 | 0.00 | 0.00 | 74 | 1018.2 |
| 20260504201412 | 85 | 181 | 2.6 | 4.3 | 0.00 | 0.00 | 0.00 | 73 | 1017.9 |
| 20260504200909 | 87 | 128 | 1.7 | 2.6 | 0.00 | 0.00 | 0.00 | 70 | 1018.0 |
| 20260504200406 | 86 | 200 | 1.7 | 5.2 | 0.00 | 0.00 | 0.00 | 70 | 1018.0 |
| 20260504195902 | 85 | 166 | 2.6 | 5.2 | 0.00 | 0.00 | 0.00 | 72 | 1018.0 |
| 20260504195358 | 84 | 151 | 0.9 | 2.6 | 0.00 | 0.00 | 0.00 | 71 | 1018.1 |
| 20260504194855 | 84 | 190 | 0.9 | 2.6 | 0.00 | 0.00 | 0.00 | 72 | 1018.1 |
| 20260504194350 | 83 | 136 | 0.9 | 2.6 | 0.00 | 0.00 | 0.00 | 72 | 1018.0 |
| 20260504193847 | 83 | 85 | 0.0 | 5.2 | 0.00 | 0.00 | 0.00 | 74 | 1018.2 |
| 20260504193344 | 85 | 152 | 2.6 | 6.1 | 0.00 | 0.00 | 0.00 | 72 | 1018.5 |
| 20260504192843 | 86 | 206 | 2.6 | 7.0 | 0.00 | 0.00 | 0.00 | 72 | 1018.0 |
| 20260504192340 | 84 | 231 | 1.7 | 2.6 | 0.00 | 0.00 | 0.00 | 71 | 1018.3 |
| 20260504191838 | 86 | 161 | 1.7 | 1.7 | 0.00 | 0.00 | 0.00 | 70 | 1018.3 |
| 20260504191336 | 86 | 260 | 0.9 | 7.8 | 0.00 | 0.00 | 0.00 | 71 | 1017.9 |
| 20260504190831 | 84 | 208 | 1.7 | 4.3 | 0.00 | 0.00 | 0.00 | 70 | 1018.4 |
| 20260504190327 | 85 | 162 | 2.6 | 4.3 | 0.00 | 0.00 | 0.00 | 71 | 1018.2 |
| 20260504185824 | 86 | 211 | 0.9 | 1.7 | 0.00 | 0.00 | 0.00 | 70 | 1018.2 |
| 20260504185321 | 84 | 233 | 1.7 | 5.2 | 0.00 | 0.00 | 0.00 | 72 | 1018.3 |
| 20260504184817 | 86 | 94 | 0.0 | 1.7 | 0.00 | 0.00 | 0.00 | 69 | 1018.4 |
| 20260504184313 | 86 | 140 | 0.9 | 2.6 | 0.00 | 0.00 | 0.00 | 69 | 1018.5 |
| 20260504183809 | 86 | 331 | 0.0 | 5.2 | 0.00 | 0.00 | 0.00 | 68 | 1018.4 |
| 20260504183306 | 84 | 167 | 0.9 | 2.6 | 0.00 | 0.00 | 0.00 | 68 | 1018.6 |
| 20260504182804 | 85 | 211 | 1.7 | 6.1 | 0.00 | 0.00 | 0.00 | 69 | 1018.6 |
| 20260504182301 | 85 | 79 | 0.9 | 4.3 | 0.00 | 0.00 | 0.00 | 68 | 1018.3 |
| 20260504181759 | 86 | 216 | 0.9 | 6.1 | 0.00 | 0.00 | 0.00 | 68 | 1018.7 |
| 20260504181255 | 83 | 142 | 0.0 | 1.7 | 0.00 | 0.00 | 0.00 | 71 | 1018.5 |
| 20260504180755 | 85 | 230 | 1.7 | 2.6 | 0.00 | 0.00 | 0.00 | 68 | 1018.6 |
| 20260504180253 | 85 | 172 | 1.7 | 6.1 | 0.00 | 0.00 | 0.00 | 67 | 1018.8 |
| 20260504175750 | 85 | 212 | 0.9 | 1.7 | 0.00 | 0.00 | 0.00 | 69 | 1018.9 |
| 20260504175247 | 86 | 182 | 0.9 | 2.6 | 0.00 | 0.00 | 0.00 | 70 | 1019.0 |
| 20260504174745 | 85 | 196 | 0.9 | 2.6 | 0.00 | 0.00 | 0.00 | 68 | 1018.8 |
| 20260504174243 | 84 | 128 | 1.7 | 4.3 | 0.00 | 0.00 | 0.00 | 69 | 1018.7 |
| 20260504173739 | 84 | 230 | 2.6 | 6.1 | 0.00 | 0.00 | 0.00 | 70 | 1019.2 |
| 20260504173236 | 86 | 206 | 2.6 | 6.1 | 0.00 | 0.00 | 0.00 | 68 | 1019.3 |
| 20260504172733 | 87 | 48 | 3.5 | 6.1 | 0.00 | 0.00 | 0.00 | 66 | 1019.1 |
| 20260504172229 | 87 | 178 | 1.7 | 5.2 | 0.00 | 0.00 | 0.00 | 65 | 1019.3 |
| 20260504171725 | 88 | 197 | 3.5 | 7.8 | 0.00 | 0.00 | 0.00 | 65 | 1019.2 |
| 20260504171223 | 86 | 146 | 1.7 | 7.8 | 0.00 | 0.00 | 0.00 | 65 | 1019.3 |
| 20260504170719 | 87 | 106 | 2.6 | 7.8 | 0.00 | 0.00 | 0.00 | 64 | 1019.1 |
| 20260504170217 | 86 | 221 | 3.5 | 7.0 | 0.00 | 0.00 | 0.00 | 63 | 1019.2 |
| 20260504160135 | 86 | 125 | 0.9 | 2.6 | 0.00 | 0.00 | 0.00 | 58 | 1019.7 |
| 20260504151102 | 84 | 160 | 0.9 | 4.3 | 0.00 | 0.00 | 0.00 | 63 | 1020.1 |
| 20260504150600 | 86 | 220 | 2.6 | 5.2 | 0.00 | 0.00 | 0.00 | 63 | 1020.0 |
| 20260504141026 | 84 | 163 | 2.6 | 5.2 | 0.00 | 0.00 | 0.00 | 71 | 1020.3 |
| 20260504140522 | 83 | 223 | 2.6 | 2.6 | 0.00 | 0.00 | 0.00 | 70 | 1020.1 |
| 20260504130447 | 80 | 91 | 1.7 | 2.6 | 0.00 | 0.00 | 0.00 | 71 | 1020.1 |
| 20260504110334 | 69 | 140 | 0.0 | 0.0 | 0.00 | 0.00 | 0.00 | 97 | 1019.9 |
| 20260504100251 | 68 | 140 | 0.0 | 0.9 | 0.00 | 0.00 | 0.00 | 97 | 1019.6 |
| 20260504081645 | 68 | 140 | 0.0 | 0.0 | 0.00 | 0.00 | 0.00 | 97 | 1018.6 |
| 20260504081141 | 68 | 137 | 0.0 | 0.0 | 0.00 | 0.00 | 0.00 | 97 | 1018.5 |
| 20260504080637 | 68 | 149 | 0.0 | 0.9 | 0.00 | 0.00 | 0.00 | 97 | 1018.5 |
| 20260504080134 | 68 | 130 | 0.0 | 0.0 | 0.00 | 0.00 | 0.00 | 97 | 1018.5 |
| 20260504050450 | 68 | 143 | 0.0 | 0.0 | 0.00 | 0.00 | 0.00 | 96 | 1019.9 |
| 20260504045947 | 68 | 125 | 0.0 | 0.9 | 0.00 | 0.00 | 0.00 | 96 | 1019.8 |
| 20260504045443 | 68 | 128 | 0.0 | 0.9 | 0.00 | 0.00 | 0.00 | 96 | 1019.7 |
| 20260504044939 | 68 | 142 | 0.0 | 0.0 | 0.00 | 0.00 | 0.00 | 96 | 1019.9 |
| 20260504044437 | 68 | 129 | 0.0 | 0.0 | 0.00 | 0.00 | 0.00 | 96 | 1019.9 |
| 20260504043934 | 68 | 144 | 0.0 | 0.0 | 0.00 | 0.00 | 0.00 | 96 | 1020.0 |
| 20260504043431 | 68 | 138 | 0.0 | 0.0 | 0.00 | 0.00 | 0.00 | 96 | 1020.1 |
| 20260504042929 | 68 | 123 | 0.0 | 0.0 | 0.00 | 0.00 | 0.00 | 96 | 1020.1 |
| 20260504042425 | 68 | 138 | 0.0 | 0.0 | 0.00 | 0.00 | 0.00 | 96 | 1020.2 |
| 20260504041921 | 68 | 129 | 0.0 | 0.0 | 0.00 | 0.00 | 0.00 | 96 | 1020.3 |
| 20260504041418 | 68 | 131 | 0.0 | 0.0 | 0.00 | 0.00 | 0.00 | 96 | 1020.5 |
| 20260504040914 | 69 | 134 | 0.0 | 0.0 | 0.00 | 0.00 | 0.00 | 96 | 1020.5 |
| 20260504040412 | 69 | 138 | 0.0 | 0.0 | 0.00 | 0.00 | 0.00 | 95 | 1020.3 |
| 20260504035908 | 69 | 131 | 0.0 | 0.0 | 0.00 | 0.00 | 0.00 | 95 | 1020.5 |
| 20260504035405 | 69 | 135 | 0.0 | 0.0 | 0.00 | 0.00 | 0.00 | 95 | 1020.4 |
| 20260504034902 | 69 | 116 | 0.0 | 0.0 | 0.00 | 0.00 | 0.00 | 95 | 1020.6 |
| 20260504034359 | 69 | 145 | 0.0 | 0.9 | 0.00 | 0.00 | 0.00 | 95 | 1020.7 |
| 20260504033856 | 69 | 153 | 0.0 | 0.9 | 0.00 | 0.00 | 0.00 | 95 | 1020.8 |
| 20260504033354 | 69 | 126 | 0.0 | 0.9 | 0.00 | 0.00 | 0.00 | 95 | 1020.7 |
| 20260504032850 | 69 | 129 | 0.0 | 0.0 | 0.00 | 0.00 | 0.00 | 95 | 1020.7 |
| 20260504032347 | 69 | 141 | 0.0 | 0.0 | 0.00 | 0.00 | 0.00 | 95 | 1020.9 |
| 20260504031844 | 69 | 143 | 0.0 | 0.0 | 0.00 | 0.00 | 0.00 | 95 | 1020.8 |
| 20260504031341 | 69 | 142 | 0.0 | 0.9 | 0.00 | 0.00 | 0.00 | 95 | 1020.8 |
| 20260504030837 | 69 | 127 | 0.0 | 0.0 | 0.00 | 0.00 | 0.00 | 95 | 1020.7 |
| 20260504030335 | 69 | 143 | 0.0 | 0.9 | 0.00 | 0.00 | 0.00 | 95 | 1020.9 |
| 20260504025831 | 69 | 130 | 0.0 | 0.0 | 0.00 | 0.00 | 0.00 | 95 | 1020.9 |
| 20260504025328 | 69 | 145 | 0.0 | 0.9 | 0.00 | 0.00 | 0.00 | 95 | 1020.6 |
| 20260504024825 | 70 | 117 | 0.0 | 0.0 | 0.00 | 0.00 | 0.00 | 95 | 1020.7 |
| 20260504024321 | 69 | 139 | 0.0 | 0.9 | 0.00 | 0.00 | 0.00 | 95 | 1020.5 |
| 20260504023818 | 70 | 146 | 0.0 | 0.0 | 0.00 | 0.00 | 0.00 | 95 | 1020.6 |
| 20260504023315 | 70 | 123 | 0.0 | 0.0 | 0.00 | 0.00 | 0.00 | 94 | 1020.4 |